Regional Weather Roundup
Issued by NWS Cleveland, OH

Home | Current Version | Previous Version | Graphics & Text | Print | Product List | Glossary On
Versions: 1 2 3 4 5 6 7 8 9 10 11 12 13 14 15 16 17 18 19 20 21 22 23 24 25 26 27 28 29 30 31 32 33 34 35 36 37 38 39 40 41 42 43 44 45 46 47 48 49 50
000
ASUS41 KCLE 290910
RWRCLE
OHIO REGIONAL WEATHER ROUNDUP
NATIONAL WEATHER SERVICE CLEVELAND, OH
500 AM EDT THU JUN 29 2017

NOTE: "FAIR" INDICATES FEW OR NO CLOUDS BELOW 12,000 FEET WITH NO
SIGNIFICANT WEATHER AND/OR OBSTRUCTIONS TO VISIBILITY.

OHZ001>008-015>018-024>027-034-035-043-044-291000-
   NORTHWEST OHIO

CITY           SKY/WX    TMP DP  RH WIND       PRES   REMARKS
DEFIANCE       MOCLDY    67  54  63 S8        29.91F
FINDLAY        CLOUDY    68  53  58 S14       29.94S
TOLEDO EXPRESS CLOUDY    68  56  65 S9        29.91S
TOLEDO EXEC    CLOUDY    71  56  58 S13       29.92F
LIMA           MOCLDY    69  55  60 S15G22    29.95F
$$

OHZ009>014-019>023-028>033-038-089-291000-
   NORTHEAST OHIO

CITY           SKY/WX    TMP DP  RH WIND       PRES   REMARKS
CLE-HOPKINS    CLOUDY    69  53  56 S13       30.00F
CLE-LAKEFRONT  CLEAR     70  52  52 S14G21    29.96F
CUY CO. ARPT   NOT AVBL
LORAIN-ELYRIA  CLOUDY    63  50  62 S8        29.98F
ASHTABULA      MOCLDY    64  54  69 S8        30.01F
AKRON-CANTON   CLOUDY    61  51  70 S7        30.03S
WOOSTER        CLOUDY    60  53  77 S6        30.03F
MANSFIELD      CLEAR     65  54  67 S12       30.01S
YOUNGSTOWN     CLOUDY    62  52  69 SE8       30.04F
$$

OHZ042-051>053-060>062-070>072-077>081-291000-
  SOUTHWEST OHIO

CITY           SKY/WX    TMP DP  RH WIND       PRES   REMARKS
CINC-COVINGTON PTCLDY    64  57  78 S8        30.01F
CINC-LUNKEN    CLEAR     60  58  92 CALM      30.02F
HAMILTON       CLOUDY    66  57  72 VRB5      30.01S
DAYTON         CLOUDY    66  54  65 S13       30.00S
WRIGHT-PAT AFB CLOUDY    64  56  74 S7        29.99S
DAYTON GENERAL CLOUDY    63  55  75 S8        30.00S
WILMINGTON     PTCLDY    63  57  81 S8        30.02S
$$

OHZ036-037-039>041-045>050-054>059-063>069-073>076-082>088-291000-
  CENTRAL AND SOUTHEAST OHIO

CITY           SKY/WX    TMP DP  RH WIND       PRES   REMARKS
COLUMBUS       MOCLDY    62  55  77 CALM      30.02S
OSU AIRPORT    CLOUDY    64  56  75 S7        30.01F
BOLTON FIELD   PTCLDY    61  56  83 S7        30.02S
RICKENBACK AFB PTCLDY    61  56  83 S8        30.01S
NEWARK         CLOUDY    59  53  80 CALM      30.03S
MARION         CLEAR     63  54  72 S9        30.00S
LANCASTER      CLOUDY    60  55  83 S3        30.03F
ZANESVILLE     CLOUDY    59  53  80 CALM      30.05R
NEW PHILLY     NOT AVBL
$$




USA.gov is the U.S. government's official web portal to all federal, state and local government web resources and services.